STARLINK-36125

Last updated on Fri Dec 19 2025 00:02:09 GMT+0000 (Coordinated Universal Time)

1 67036U 25294G 25351.83335648 -.01297515 50179-3 -31962-2 0 9990 2 67036 42.9998 151.3048 0001675 275.4046 131.7507 15.95151961 2126
UTC large
Height (km)
Speed (km/s)
/
Latitude / Longitude
Inclination (degrees)
Orbital Period (minutes)
Azimuth
Elevation
Range (km)
Doppler Factor

Next 0 passes for location: London (51.5072 / 0.1276)

Sorry there are no passes over London.